Theta_e
313 314 315 317 320 323 324 325 325 326 325 325 324 323 320 318 314 312 312 313 314 320 323 320 324 326 321 322 322 322 322 320 319 319 317 316 315 313 313 311 312 312 310 310 310 309 309 310 310 312 315 315 314 311 309 307 306 305 305 304 305 304 304 305 304 305 304 305 302 299 299 299 298 298
311 312 313 315 316 321 323 323 324 324 325 325 325 324 323 321 317 316 313 313 317 318 321 323 322 324 321 323 324 325 323 318 320 320 318 316 316 312 312 311 312 312 311 311 311 310 309 309 310 313 314 313 311 309 307 305 305 305 304 303 304 304 304 303 302 302 303 302 300 299 298 298 298 298
311 311 312 313 314 317 321 323 323 323 324 324 324 324 323 321 321 318 316 313 317 321 318 320 323 325 326 326 324 324 323 319 320 320 319 318 314 313 313 311 311 312 311 311 311 310 309 307 308 310 311 311 309 307 307 307 304 303 303 302 303 303 302 302 301 302 302 301 300 300 298 298 298 298
308 309 310 312 313 315 317 321 323 324 324 323 323 323 323 323 323 321 319 316 316 320 320 320 322 326 324 324 321 320 321 320 317 321 319 319 314 315 316 311 311 310 310 310 310 309 308 307 306 307 308 309 306 305 305 304 303 302 302 302 303 303 303 302 302 302 302 301 300 299 298 297 298 298
306 307 308 310 312 314 314 316 320 322 323 323 323 323 323 322 323 322 320 318 317 319 321 321 321 325 325 324 323 320 319 319 320 319 319 317 317 317 317 315 309 309 308 308 308 308 308 307 306 305 305 305 304 303 303 302 301 301 301 301 301 302 303 303 302 302 302 300 299 298 297 297 297 297
306 306 306 307 309 311 312 313 315 318 322 322 321 322 323 323 323 324 321 319 318 317 318 320 321 322 325 322 323 320 317 312 316 317 317 317 317 317 316 315 313 307 308 307 307 307 307 305 304 304 303 302 302 302 301 301 300 300 300 300 300 302 303 302 301 300 301 300 299 298 297 297 297 297
305 304 304 305 306 309 309 310 312 314 315 320 321 321 322 322 323 323 323 321 319 318 318 320 319 320 323 322 321 322 317 313 315 316 316 316 316 316 315 314 313 306 306 305 305 305 305 304 303 303 302 301 300 299 299 299 299 298 298 299 299 300 300 299 300 300 299 298 298 297 297 296 296 297
304 304 304 304 305 306 307 308 310 312 313 315 319 320 321 321 322 322 323 322 321 320 319 319 320 319 320 320 322 322 315 313 313 315 315 315 314 313 313 313 311 306 304 304 304 304 304 303 302 302 301 300 299 299 299 299 298 298 298 298 297 298 297 297 297 297 297 297 297 297 297 296 296 297
304 304 304 304 304 305 305 306 308 309 310 312 313 316 320 319 320 322 322 322 322 320 319 319 319 320 320 322 321 318 312 311 313 311 311 311 310 309 310 311 308 303 304 304 304 304 303 302 302 301 300 299 299 298 299 298 298 298 298 298 297 297 297 296 296 295 296 296 296 296 296 295 296 298
304 304 304 305 305 305 304 305 307 308 309 311 312 313 315 319 319 318 320 321 321 321 319 319 318 319 319 318 318 317 312 310 309 308 308 308 307 306 305 305 304 304 304 304 304 303 302 302 301 300 300 299 298 298 298 298 298 298 298 297 297 297 296 295 294 294 294 294 294 294 293 294 296 298
303 303 304 304 305 305 305 305 305 306 307 308 310 311 313 315 318 318 317 318 318 319 319 319 320 318 319 318 314 315 312 311 311 307 304 303 305 305 304 301 302 304 304 303 303 303 302 302 301 300 300 299 299 299 298 298 298 297 297 296 296 296 295 295 294 294 293 293 293 293 293 293 294 296
303 303 303 303 303 303 304 304 305 305 305 306 306 307 310 312 313 315 317 316 317 317 318 318 318 317 315 313 312 313 310 308 307 307 305 303 300 301 302 302 301 302 302 301 301 301 301 300 300 299 299 299 298 298 298 298 298 297 296 295 295 295 295 295 295 294 294 293 293 293 293 293 293 294
303 303 303 304 304 305 305 303 302 302 302 303 302 303 304 305 306 308 312 316 316 316 316 316 317 315 314 310 307 306 306 306 306 306 305 304 302 301 300 301 303 302 300 300 300 299 299 298 297 297 297 297 298 298 298 298 298 296 295 294 294 294 294 294 294 294 294 294 294 293 293 293 293 293
301 302 302 303 304 302 302 301 299 298 298 300 302 302 302 302 302 304 306 309 313 315 314 314 315 314 314 310 308 307 307 308 306 303 302 301 299 299 297 297 299 302 300 298 297 298 298 297 296 296 295 296 298 296 296 295 296 296 294 294 294 294 294 295 295 294 294 294 294 294 293 293 293 292
300 300 301 301 302 302 301 301 299 297 297 297 297 298 299 301 302 301 302 304 308 311 314 316 315 313 313 312 309 308 307 307 304 303 301 301 298 297 296 295 296 299 299 297 297 296 297 296 294 293 294 295 295 295 296 295 296 295 294 294 294 294 294 294 294 294 294 294 294 294 293 293 293 293
298 298 299 300 301 301 301 301 301 300 298 297 296 296 296 296 296 297 301 303 304 306 309 311 313 316 314 313 311 308 306 304 303 302 301 300 298 297 297 300 297 297 299 297 295 295 295 295 294 293 293 294 295 295 295 295 294 294 294 294 294 294 294 294 294 294 293 293 293 293 293 293 293 292
296 297 297 298 299 301 301 303 301 300 300 298 297 298 298 298 297 296 295 296 303 306 307 308 310 313 317 314 313 311 307 306 303 301 300 299 298 299 299 300 300 295 298 296 295 294 293 293 292 292 293 293 293 293 294 294 294 294 294 294 294 294 294 294 293 293 293 293 293 293 293 292 292 291
295 295 296 296 297 298 300 300 300 300 300 299 299 300 301 304 304 299 298 296 295 299 305 307 307 311 315 315 312 314 309 306 302 301 300 300 298 298 299 300 298 296 298 296 295 293 291 292 292 290 291 292 292 293 294 294 294 294 294 294 293 293 293 293 293 293 293 292 292 292 292 292 291 291
295 295 296 296 296 297 298 299 299 299 299 299 298 298 298 299 300 302 305 308 306 301 302 305 307 310 313 316 313 312 310 308 306 304 303 302 301 299 298 295 296 294 297 297 295 293 293 291 290 290 291 291 291 292 293 294 294 294 294 294 293 293 293 293 293 293 293 292 292 292 291 291 291 290
295 295 296 295 295 296 296 296 295 296 298 298 297 297 297 297 298 300 301 300 302 306 307 305 306 309 311 309 315 312 310 309 307 303 301 300 299 298 297 294 292 292 295 296 294 292 290 290 290 290 291 291 290 292 291 293 294 294 294 294 293 293 292 292 292 292 292 292 292 292 291 291 290 290
293 294 294 294 294 295 295 295 293 293 294 296 296 296 296 296 297 297 300 299 299 299 298 299 300 300 301 302 304 303 302 306 305 304 301 298 298 297 296 295 292 292 292 294 294 293 290 290 290 289 291 290 290 291 291 292 293 293 294 294 293 293 292 292 292 292 292 292 292 291 291 291 291 291
292 293 296 297 295 294 295 294 293 292 294 295 296 296 295 295 295 296 298 301 303 301 301 300 297 298 299 300 302 301 301 300 302 305 301 301 299 298 298 297 294 293 292 293 295 293 291 292 291 290 290 291 291 292 292 292 292 293 293 293 293 293 292 292 292 292 292 292 292 292 291 291 291 290
291 292 294 295 295 295 295 293 292 292 294 295 296 296 295 295 294 295 297 298 301 306 308 310 308 302 300 303 308 308 300 300 302 306 306 304 301 299 299 298 293 291 291 294 296 293 291 290 291 291 289 289 292 292 292 292 292 292 292 293 292 292 292 292 292 292 292 292 292 292 291 291 291 290
291 292 292 294 292 291 291 291 291 292 292 294 296 296 295 295 294 297 298 299 301 302 302 303 307 309 309 308 310 312 305 304 306 307 307 305 303 302 300 298 296 295 295 294 297 295 293 292 291 293 291 289 286 289 290 291 291 292 293 292 291 291 292 292 291 292 291 292 292 291 291 291 291 289
290 290 291 293 293 292 291 291 291 291 291 292 295 295 295 296 296 296 296 297 296 299 299 300 302 305 309 309 311 311 307 305 306 307 306 306 305 304 302 299 297 298 296 296 296 297 292 292 291 292 292 291 290 288 289 289 290 291 292 291 290 290 290 289 290 289 291 291 291 291 291 291 291 290
289 290 291 291 292 291 291 291 291 291 291 291 294 295 293 293 292 295 296 296 296 297 298 298 300 302 307 310 310 309 306 305 305 307 307 306 306 306 306 302 299 297 296 297 295 298 294 292 293 292 292 291 290 289 287 288 288 289 290 290 289 289 288 288 288 288 288 288 289 289 290 291 291 292
289 290 290 292 292 290 291 291 291 291 291 291 293 292 292 292 291 292 295 294 294 295 295 296 297 299 304 306 307 306 305 305 306 306 306 306 306 306 304 303 302 300 298 297 299 299 297 295 295 294 292 291 289 289 288 288 289 291 290 290 290 290 289 288 287 287 287 288 289 290 290 290 290 290
289 289 290 290 290 290 290 290 290 291 291 292 291 291 291 291 291 294 294 293 294 293 294 294 296 298 303 306 305 304 305 305 305 304 302 301 302 302 300 299 298 298 299 299 299 300 298 296 296 296 295 292 289 287 287 293 291 289 288 291 290 289 290 289 288 288 289 288 289 290 289 288 289 289
289 289 289 289 289 289 289 289 290 290 290 290 290 290 290 292 293 293 294 294 294 294 293 295 297 299 303 306 306 304 300 298 300 298 298 298 298 298 298 297 297 298 299 299 300 300 299 298 296 296 295 294 291 291 291 290 290 289 290 289 287 290 290 290 289 288 289 289 289 289 288 288 288 290
288 288 288 288 288 288 288 289 290 290 291 291 290 290 291 293 293 294 294 294 294 294 295 296 298 300 301 297 298 299 299 299 299 298 296 296 295 297 296 295 295 297 298 299 299 299 299 298 297 296 295 294 294 292 292 291 289 290 290 289 290 291 291 291 290 290 290 289 289 289 289 289 289 289
288 288 289 289 288 288 288 288 289 290 291 291 292 292 293 293 294 294 295 295 296 295 297 298 300 296 295 295 295 296 298 297 297 297 296 296 295 296 295 294 292 293 294 296 297 298 298 298 298 297 295 294 294 294 293 292 291 290 290 290 290 287 289 290 289 288 289 288 289 289 290 288 288 289
288 289 289 289 289 289 289 289 289 289 290 291 291 293 294 294 294 294 294 295 297 299 300 300 295 293 294 295 296 295 296 295 294 295 295 295 294 294 294 292 290 291 291 293 294 296 294 297 297 296 295 294 293 293 293 292 290 290 290 289 289 289 289 288 288 288 289 288 288 287 288 287 288 287
287 287 287 287 288 289 288 288 288 288 289 289 291 293 295 296 296 295 295 295 296 299 298 295 293 292 293 291 292 292 292 291 292 293 293 293 293 292 294 292 290 290 289 289 290 293 293 293 292 292 290 291 294 294 291 287 288 289 288 288 288 288 288 288 288 288 288 288 287 286 286 287 288 287
285 286 286 287 287 288 288 288 288 288 289 289 290 291 291 293 295 295 296 296 297 296 295 293 292 292 291 290 291 291 290 290 290 291 292 292 292 291 290 289 289 290 289 289 289 289 289 289 289 289 289 288 288 289 290 289 287 288 288 288 287 286 286 287 287 288 287 286 285 285 285 283 285 285
285 286 287 287 287 288 288 288 288 288 289 289 290 290 291 292 292 292 295 297 294 293 293 292 292 291 291 290 290 289 289 289 289 289 290 291 291 290 290 289 288 288 289 289 288 289 288 288 288 288 288 288 287 287 289 289 288 287 287 287 286 286 285 286 286 287 286 285 285 284 283 282 283 284
286 288 288 288 288 288 288 288 289 289 289 290 290 290 290 291 292 293 294 294 295 293 292 291 290 290 290 290 289 289 288 288 288 288 288 289 288 288 289 289 288 288 289 288 288 289 289 288 288 287 285 285 285 283 283 288 289 286 286 284 284 285 285 285 285 285 285 285 285 284 281 279 281 284
286 287 287 288 288 288 288 289 289 289 290 290 290 291 291 291 292 294 295 293 294 292 292 291 291 290 289 289 288 288 288 288 288 288 287 287 288 288 287 287 287 288 288 288 289 289 289 288 288 287 285 285 283 281 280 284 286 289 286 285 284 285 284 285 285 284 284 285 284 284 281 279 280 283
285 286 287 287 287 287 288 289 289 289 289 289 290 290 290 290 290 291 293 293 291 291 290 291 289 289 289 288 288 287 287 288 287 287 287 287 287 287 287 287 286 287 287 287 288 288 288 287 287 287 286 284 281 280 280 282 284 284 288 286 284 283 284 285 284 283 283 284 283 282 281 282 280 282
285 285 286 287 287 287 286 287 287 287 287 287 288 288 288 288 289 290 291 291 290 290 290 289 289 289 288 288 288 287 287 287 286 286 286 286 287 286 286 286 286 286 287 286 287 286 286 286 286 286 287 285 283 282 283 281 281 283 286 288 285 284 283 284 283 283 283 283 283 283 281 282 284 285
285 285 285 286 286 287 287 286 286 286 287 287 287 287 288 288 289 289 289 289 289 289 290 289 288 288 288 288 287 287 287 287 286 286 286 286 286 286 286 286 286 286 286 285 285 285 285 285 286 286 286 286 285 285 284 284 283 284 284 285 287 286 284 283 283 283 282 282 282 281 280 279 280 280
285 285 285 285 285 286 286 286 287 286 287 287 287 287 287 287 288 288 288 289 289 289 288 288 288 288 288 287 287 287 286 286 286 286 286 286 286 286 286 285 285 286 285 284 284 284 284 285 286 286 286 285 285 286 285 283 281 282 282 282 286 287 287 286 284 283 282 282 282 280 278 278 279 276
284 284 285 285 285 285 286 286 286 286 286 287 287 286 286 286 286 287 287 287 287 288 288 288 288 287 287 287 287 287 287 286 286 286 286 286 285 285 285 285 285 285 285 283 284 283 284 286 286 286 286 285 285 284 282 282 281 281 282 283 283 286 286 287 287 286 284 283 280 281 280 278 276 275
284 284 284 285 285 285 285 285 285 285 286 286 286 286 287 286 287 287 287 287 287 287 287 287 287 287 287 287 287 287 287 286 286 286 286 286 286 285 285 285 285 285 284 284 284 284 285 286 286 286 286 286 285 285 282 282 282 282 282 281 282 283 283 286 287 287 286 287 285 283 281 279 276 276
284 284 284 285 285 285 285 285 285 285 285 285 286 286 286 286 286 286 286 286 287 287 287 287 287 287 287 287 287 286 286 286 286 286 286 286 286 286 285 284 284 284 284 284 284 284 285 285 285 286 286 285 285 284 283 283 282 282 282 283 282 282 282 282 282 284 285 285 285 286 286 286 285 285
284 284 284 284 284 285 285 285 285 285 285 285 285 285 285 286 285 286 286 286 286 286 286 286 286 286 286 287 286 286 286 286 286 286 286 286 285 285 284 284 284 284 284 285 284 284 284 284 285 285 285 285 285 285 284 284 283 283 282 282 282 282 282 283 282 281 281 281 284 285 285 285 285 285
Wind_Speed
7 7 8 8 7 7 7 7 7 7 7 7 8 8 10 10 10 9 9 7 5 4 6 5 5 7 4 7 7 8 9 11 13 10 9 11 11 18 22 23 23 23 22 21 19 17 16 16 17 17 16 15 14 14 14 14 13 12 11 10 9 9 9 8 7 8 7 6 6 4 2 1 1 1
8 8 8 8 9 7 7 7 7 7 7 9 8 6 7 8 10 10 10 9 6 5 4 6 6 4 4 4 6 6 8 12 15 10 10 11 12 20 22 23 24 24 23 23 21 19 17 17 18 17 16 16 15 15 15 14 13 12 11 11 10 9 10 9 9 9 8 7 6 5 3 1 1 2
7 8 10 9 9 9 8 8 7 7 7 7 6 8 8 8 9 10 8 9 6 6 8 5 5 3 2 3 3 3 5 10 15 12 11 11 15 21 19 22 23 24 24 23 22 20 18 17 18 18 17 16 16 15 15 12 13 12 12 11 11 11 11 10 10 9 9 7 6 5 4 2 2 3
8 9 10 9 8 8 8 8 7 8 7 7 8 8 8 8 8 8 9 10 12 6 7 6 4 2 3 3 3 2 3 5 11 8 9 11 15 14 12 20 22 23 22 22 23 21 19 19 17 16 16 17 17 16 15 15 13 13 12 12 11 11 11 10 10 9 9 7 6 5 4 3 2 3
7 9 10 10 9 8 9 7 7 7 7 7 8 8 8 8 7 8 9 11 11 9 5 6 4 3 5 3 3 4 3 4 3 5 6 10 11 11 10 12 17 20 21 20 21 22 21 19 19 18 17 17 17 16 15 14 14 13 13 12 11 10 11 11 10 9 8 7 6 5 4 3 3 3
7 7 9 10 10 10 10 9 9 8 7 8 8 8 8 9 9 8 9 10 10 14 4 7 3 4 3 4 4 5 5 3 3 7 7 6 9 11 9 10 11 18 19 20 20 22 21 19 18 19 19 18 17 16 15 14 14 13 13 12 11 11 10 10 10 9 8 7 6 5 4 3 3 4
9 9 9 10 10 9 10 10 10 9 9 8 9 10 8 9 10 9 10 10 11 12 11 6 6 5 6 7 7 7 3 2 2 6 7 8 7 7 9 10 9 17 18 18 17 18 20 21 19 18 18 17 17 16 16 15 14 14 14 13 12 11 10 9 8 8 7 7 6 5 4 3 4 5
9 9 9 9 9 9 10 10 10 10 9 9 8 8 10 9 11 10 9 11 10 10 11 6 9 7 8 3 6 8 8 6 5 4 4 4 7 7 7 8 8 12 16 18 19 17 16 17 18 18 17 17 16 15 15 15 15 14 14 13 12 11 10 9 8 7 7 7 6 5 4 4 5 6
10 10 11 11 10 10 11 11 10 10 11 10 10 10 8 8 10 9 9 10 9 11 12 9 6 7 7 5 8 9 10 6 4 2 3 5 7 7 5 6 5 10 17 18 18 19 19 18 17 17 17 16 16 15 15 15 16 15 14 13 12 11 10 10 9 8 7 5 3 5 5 5 6 7
8 8 9 9 9 10 10 10 11 10 11 10 11 11 10 8 8 10 10 9 10 11 11 9 6 5 8 4 6 10 10 11 7 5 4 3 2 6 7 5 6 4 5 8 9 12 15 17 19 18 17 17 17 16 16 16 15 15 14 14 13 11 10 10 9 8 7 6 5 4 5 6 7 8
10 9 9 9 9 10 10 11 12 12 12 10 11 11 11 10 8 7 8 9 10 10 11 10 10 8 8 8 9 8 9 10 10 12 8 4 4 4 7 7 3 5 6 7 11 13 13 14 12 16 18 18 17 16 15 15 15 15 14 14 13 12 11 10 10 8 8 7 6 6 5 6 8 8
10 10 11 11 11 12 11 11 11 11 12 10 11 11 11 11 10 9 8 8 9 10 10 10 10 9 9 5 0 6 9 8 4 7 10 13 9 8 5 6 9 7 6 8 5 3 6 9 12 14 14 15 16 16 15 16 14 15 14 13 13 12 11 10 8 8 8 7 7 7 7 6 8 9
8 8 8 9 9 11 14 15 14 15 14 12 13 13 11 12 12 13 10 7 7 7 7 9 8 7 5 4 8 10 9 12 14 12 9 8 8 8 6 4 2 5 9 6 6 7 8 9 8 6 7 9 13 14 14 10 13 15 13 13 12 12 11 11 10 9 9 9 8 8 8 8 8 8
11 12 11 11 15 14 14 14 15 16 16 17 14 14 13 13 12 12 12 12 9 7 9 8 8 8 7 8 10 12 14 12 7 8 8 9 8 7 4 1 3 4 7 9 10 8 7 9 8 9 11 8 11 9 9 10 11 13 13 13 12 12 12 11 10 10 10 10 9 9 8 8 8 8
11 11 11 11 14 17 17 16 15 14 17 18 19 21 22 19 14 13 13 13 12 11 10 7 7 9 9 10 10 12 12 11 13 13 12 10 10 12 12 12 5 6 10 10 9 9 8 8 10 7 7 8 9 8 8 13 15 14 14 13 14 13 13 13 12 12 11 10 10 9 9 9 9 9
11 12 11 11 9 11 12 12 13 15 17 16 17 18 19 19 21 18 15 14 13 13 11 11 11 8 8 9 10 9 8 10 9 10 11 11 14 12 13 11 13 11 15 11 11 11 6 7 7 8 9 8 8 9 11 15 14 14 15 15 15 14 14 13 13 12 12 11 10 10 9 9 9 8
11 11 12 12 10 10 14 13 12 11 12 15 19 20 20 21 21 21 20 20 18 14 13 13 13 12 8 7 10 13 14 13 14 11 9 10 12 14 15 14 11 7 17 12 9 11 9 10 10 10 8 8 7 8 12 16 16 17 16 16 16 15 14 14 13 12 12 11 10 10 10 9 9 9
11 11 12 12 12 11 11 11 11 10 11 12 13 15 15 13 14 17 21 21 22 21 16 15 16 15 11 10 7 9 11 13 13 13 15 14 13 14 14 4 4 6 12 16 13 8 9 11 10 11 9 8 7 8 10 16 16 17 16 16 15 14 14 14 13 13 12 12 11 10 10 9 9 10
12 12 12 13 14 13 13 12 13 13 13 13 13 15 16 17 16 15 14 11 10 11 13 15 16 16 14 13 8 11 8 11 14 18 20 19 15 6 6 7 7 8 11 9 7 13 7 7 9 10 8 7 8 7 10 16 17 17 17 16 15 15 15 14 13 13 12 12 11 10 9 9 10 11
12 12 13 13 14 14 14 16 18 17 14 14 16 16 16 16 16 16 15 16 17 13 11 13 15 15 16 17 12 11 13 12 5 3 8 8 8 9 7 6 6 8 8 10 10 7 7 9 11 9 6 7 7 7 7 14 18 17 17 16 16 15 15 14 13 13 13 12 11 10 10 10 10 11
12 13 13 13 14 14 15 16 17 17 16 15 17 17 16 14 14 17 15 16 18 19 18 18 20 22 22 22 20 19 21 16 11 9 5 5 7 9 10 6 6 9 10 12 12 6 4 8 9 6 5 7 7 7 8 8 15 18 17 15 16 15 14 13 13 12 13 12 11 10 11 11 10 10
12 13 21 23 17 16 16 16 17 17 15 15 15 15 15 16 16 16 13 11 12 17 19 18 18 21 22 23 22 21 22 21 16 14 15 13 10 11 11 12 10 5 8 11 11 8 6 7 7 7 3 4 4 7 7 8 10 16 14 16 15 14 13 13 13 13 13 12 12 11 12 10 8 5
12 13 14 21 20 18 18 20 19 19 16 15 15 15 15 16 18 15 10 13 14 11 10 10 9 10 13 14 14 15 23 24 22 18 18 14 14 14 12 9 6 2 7 11 14 12 7 11 8 10 6 7 1 3 6 7 6 8 7 7 8 11 12 13 13 13 13 12 12 12 11 9 5 4
12 12 13 15 18 21 22 22 23 22 21 17 15 14 15 16 18 9 10 13 12 12 12 12 13 12 10 11 14 13 14 18 21 19 16 15 16 15 14 13 15 15 10 10 16 12 5 9 11 11 7 7 5 4 5 5 5 6 7 7 7 9 11 11 10 13 12 10 11 11 10 9 8 4
13 12 11 10 14 18 21 22 23 23 23 22 18 17 17 17 13 9 11 13 15 14 14 13 12 13 11 10 10 11 12 14 15 15 15 16 17 16 14 13 13 12 5 13 21 12 8 10 11 10 6 3 3 6 4 5 4 6 6 7 7 6 7 7 5 6 8 11 11 11 10 11 12 8
13 12 12 11 13 17 19 20 22 23 22 24 18 19 22 21 19 17 14 12 11 12 12 11 12 12 12 9 10 11 11 13 14 14 14 15 16 14 14 17 16 13 9 13 25 15 9 11 13 13 8 6 3 7 8 4 5 6 6 6 6 6 7 7 6 6 5 5 6 8 11 14 14 14
15 14 14 14 18 20 21 21 20 20 22 20 18 22 21 21 21 18 13 12 12 12 12 12 13 13 13 9 9 9 11 12 13 12 11 11 12 10 7 5 4 4 7 13 14 7 6 4 6 12 10 6 9 4 6 8 5 6 5 5 6 6 5 5 6 7 5 5 6 9 10 10 12 12
15 14 13 14 19 21 21 22 22 21 21 17 20 19 21 21 19 14 13 13 12 11 11 12 13 13 13 9 8 8 9 12 12 10 8 7 6 7 6 7 8 9 11 13 14 9 9 9 8 4 8 12 12 11 9 3 6 10 9 6 6 6 5 6 7 5 5 5 4 3 4 5 5 5
16 19 24 26 26 25 24 25 24 21 22 24 23 22 21 19 13 14 13 13 11 11 13 13 12 12 12 10 9 6 5 4 8 9 7 7 8 8 9 8 9 10 10 9 9 6 6 8 9 7 7 6 9 7 9 8 9 9 7 7 5 6 6 6 6 6 5 4 5 4 5 5 4 4
29 29 29 31 30 28 25 20 17 15 16 19 21 21 21 14 14 13 12 11 12 13 12 12 12 12 8 3 3 7 10 11 11 11 11 10 8 10 10 10 8 7 8 8 8 8 7 7 7 8 9 7 8 9 7 8 7 8 9 9 7 4 5 6 6 3 5 6 6 5 3 2 1 2
16 18 19 16 19 18 22 22 20 19 18 15 14 13 13 13 13 12 11 11 12 12 11 11 10 4 2 2 5 8 9 9 7 8 12 11 10 10 10 12 9 8 5 5 4 8 9 9 8 10 10 7 7 8 8 7 7 7 8 7 8 5 5 5 5 6 5 5 3 4 4 5 6 5
15 15 16 18 15 14 14 13 12 12 13 13 12 11 11 11 12 14 16 15 13 12 11 9 5 5 6 8 7 7 8 8 7 7 9 11 10 10 12 11 9 8 6 5 6 6 8 7 7 4 5 7 7 5 5 5 8 9 8 7 6 4 7 8 6 5 5 5 5 5 3 4 6 5
16 14 13 13 12 11 10 9 10 10 11 11 12 13 11 9 9 10 10 12 12 12 9 8 9 7 6 4 3 7 7 8 8 7 9 8 12 6 7 12 12 12 12 9 7 7 8 8 8 8 6 5 5 11 10 5 5 8 9 7 7 6 5 5 6 5 4 6 5 5 5 5 5 6
14 13 13 11 10 9 9 9 9 9 9 9 10 10 11 10 9 8 8 9 11 9 9 9 9 9 8 8 7 8 8 7 6 6 10 10 9 11 10 11 9 8 10 10 9 9 9 9 11 8 9 10 10 8 4 10 7 6 7 7 8 7 4 5 5 5 6 5 6 4 4 4 5 4
10 11 11 9 8 9 8 8 8 7 8 8 8 9 8 9 10 10 10 10 7 9 10 10 10 10 10 10 8 9 9 10 9 7 5 8 8 10 11 12 11 10 11 11 10 9 11 11 11 9 10 10 10 8 14 9 7 8 8 7 7 8 5 4 5 5 5 4 4 5 5 4 5 2
10 8 8 7 6 6 6 6 6 7 8 8 8 7 7 9 10 11 12 11 12 11 10 10 9 9 9 9 9 9 9 9 9 9 9 8 8 7 7 10 10 9 9 11 11 10 11 10 9 11 11 9 8 6 5 12 10 4 11 6 5 6 5 5 5 5 7 6 5 5 4 4 4 5
8 7 6 5 5 5 6 5 5 6 7 7 7 8 8 9 9 11 11 12 12 12 12 12 11 10 9 9 8 8 10 11 10 9 8 7 8 9 10 9 9 9 10 9 9 10 10 10 8 10 10 11 10 8 3 3 11 11 7 10 4 4 6 6 8 7 5 6 5 5 4 5 3 4
8 7 6 5 4 2 3 4 5 5 5 5 6 6 6 5 4 6 9 10 9 9 10 10 9 9 9 10 11 10 8 8 9 9 8 9 10 9 10 11 10 9 10 9 8 9 9 10 9 9 9 10 10 10 7 2 3 6 8 5 8 4 5 8 7 7 4 3 5 3 5 6 5 3
8 8 7 6 5 4 1 1 2 2 2 1 2 3 3 3 4 7 8 9 10 10 9 9 10 10 11 9 9 12 11 11 10 10 10 8 8 10 9 10 10 8 10 8 8 7 7 9 9 8 9 9 10 9 9 7 4 0 6 6 7 7 5 8 7 5 5 4 4 4 3 1 3 5
9 8 7 7 6 6 4 2 2 2 3 3 3 3 3 4 5 6 7 8 9 10 10 10 11 10 9 10 10 9 9 11 11 10 10 10 10 10 9 8 8 8 8 7 6 5 6 6 7 6 5 6 7 8 8 8 4 2 4 7 8 7 6 6 6 7 4 3 4 5 6 5 4 2
8 8 8 7 6 6 5 3 2 3 4 4 5 5 5 4 4 4 4 7 10 10 9 9 10 11 10 10 10 12 11 9 10 10 10 10 10 10 12 11 8 7 8 7 6 6 5 3 6 14 15 11 12 10 9 8 7 4 5 4 8 7 6 7 6 5 4 3 5 6 5 3 3 2
8 8 7 7 6 6 5 5 4 3 4 4 5 6 6 6 5 7 7 6 6 8 11 10 9 9 9 9 10 10 12 12 11 11 11 11 11 10 11 9 8 7 9 8 7 6 5 7 11 13 12 11 9 9 8 9 9 5 4 1 1 5 6 7 7 5 6 6 5 4 2 2 2 3
8 7 7 7 7 6 6 6 5 4 4 4 5 6 7 7 6 7 6 7 7 7 7 9 9 9 8 8 8 9 10 11 11 11 11 11 11 11 10 9 9 8 8 7 6 6 5 6 8 10 8 7 6 9 10 8 8 7 4 4 3 1 1 5 4 5 4 5 5 4 3 3 3 4
8 7 7 7 7 7 7 7 6 5 5 5 5 5 6 8 8 7 6 6 7 7 7 8 9 9 9 9 9 9 9 9 10 12 12 11 11 10 10 10 10 10 9 8 7 6 5 6 4 7 8 7 6 9 10 9 7 6 6 5 2 2 3 2 2 4 4 4 3 5 3 4 5 5
7 7 7 7 7 7 7 7 7 6 6 6 6 7 7 8 8 8 7 6 7 7 8 8 9 9 9 10 11 11 10 11 12 11 11 11 10 11 11 11 11 11 10 8 8 6 6 6 5 6 8 7 6 9 9 8 8 6 4 4 4 3 3 2 3 5 2 1 3 1 1 5 7 8
Wind_Direction
306 303 299 292 284 266 251 245 238 241 243 246 233 220 222 215 234 258 261 249 241 261 205 239 247 248 206 214 224 205 196 188 175 176 168 170 173 183 180 180 176 176 180 182 186 190 192 185 183 184 187 183 176 171 167 163 162 160 157 157 150 147 143 137 134 145 152 150 129 114 115 110 63 350
302 295 295 295 291 280 262 252 243 235 231 231 235 243 228 200 217 225 239 255 207 251 234 207 243 256 251 212 213 215 203 187 178 174 172 171 177 180 184 182 179 177 179 181 182 185 190 187 181 185 185 177 174 173 171 168 167 165 162 161 153 150 150 149 152 158 158 149 147 157 167 189 273 309
297 291 286 286 285 286 276 259 250 243 240 239 226 230 232 232 219 222 233 253 239 198 246 244 227 218 212 198 193 222 224 194 184 176 171 175 175 178 185 183 180 180 182 179 177 180 183 188 186 184 182 178 175 176 175 170 168 166 163 161 157 160 161 163 164 168 165 164 168 170 176 210 253 295
297 299 295 290 285 290 292 281 260 249 235 229 231 232 237 240 224 218 233 236 254 209 221 224 241 183 121 113 136 199 226 215 196 164 165 168 163 176 184 186 183 182 182 180 174 175 178 181 183 183 181 178 176 176 175 172 168 167 164 162 163 165 168 171 171 177 171 171 174 174 184 218 251 288
289 293 294 295 295 295 291 289 284 272 260 241 225 222 226 229 234 229 225 234 248 255 201 227 202 194 134 112 142 152 180 179 169 140 151 152 166 173 178 182 189 184 181 182 176 174 175 178 179 178 179 178 175 174 173 171 168 166 165 166 168 170 173 175 175 182 177 175 178 175 199 229 253 277
285 288 295 299 302 302 296 296 294 291 270 253 250 236 224 229 229 221 230 231 236 254 213 228 219 194 177 129 146 173 171 201 156 150 149 154 161 171 169 175 187 189 183 182 183 174 173 175 177 177 175 175 175 173 171 170 169 168 167 170 174 173 176 177 177 181 180 179 182 188 206 236 260 283
289 285 281 285 293 295 297 296 293 294 294 283 262 252 232 228 228 220 218 227 234 244 248 202 217 197 200 177 182 177 155 137 163 152 162 161 161 163 172 178 181 186 181 176 179 179 174 171 173 175 175 175 175 173 170 170 170 171 172 174 176 175 174 175 175 178 182 184 188 198 219 239 270 280
284 283 287 287 289 294 292 293 293 292 290 291 284 264 259 249 231 221 216 218 231 240 254 211 206 203 187 210 174 159 143 153 163 180 147 148 157 159 172 178 175 177 176 175 173 170 171 170 170 172 175 176 176 175 173 170 171 176 177 175 177 176 175 171 167 170 180 193 202 215 221 240 266 277
275 280 283 287 290 293 294 293 292 290 289 288 287 285 267 251 253 242 219 219 219 235 241 240 210 191 201 195 173 157 149 157 155 112 177 177 162 154 154 159 158 165 175 178 176 173 170 171 172 173 175 176 177 175 173 175 177 178 177 176 177 178 174 170 167 170 179 194 203 226 238 251 267 277
278 281 283 285 284 281 279 285 289 292 291 290 286 286 284 270 254 256 252 226 216 223 234 241 240 230 207 213 188 176 160 154 148 138 129 114 165 155 149 150 147 124 169 135 175 175 171 170 172 175 177 178 178 178 178 180 181 178 179 178 176 177 176 176 177 179 188 194 199 215 244 257 268 275
270 270 270 272 275 278 279 280 284 292 295 294 292 289 287 287 277 260 256 255 238 221 226 235 233 224 231 200 176 180 165 162 166 159 145 166 197 198 167 147 128 170 181 200 183 176 173 172 174 180 181 182 181 179 180 181 182 181 181 180 178 177 180 184 184 185 192 199 204 213 228 249 264 274
269 267 264 263 267 269 274 280 284 287 291 301 301 303 312 309 303 285 258 245 247 238 224 227 229 224 214 205 221 143 140 138 148 183 171 177 179 190 180 171 166 175 178 170 182 183 164 173 179 181 183 183 179 180 183 185 182 184 182 182 181 180 183 181 176 186 196 201 208 217 229 233 250 267
277 279 276 271 265 261 260 262 265 269 274 284 288 290 292 294 299 302 301 283 261 259 250 238 230 228 213 213 151 159 176 177 182 182 185 179 164 162 171 164 135 173 174 174 176 182 178 171 180 165 176 189 184 188 184 180 181 182 183 184 184 185 186 189 189 193 200 206 213 221 229 239 245 252
277 274 276 277 282 287 284 275 267 265 265 264 267 279 284 282 284 285 290 287 280 264 251 246 237 230 219 183 186 176 192 189 153 154 171 169 166 143 130 87 216 168 172 170 183 195 193 181 177 182 192 185 183 187 185 193 183 182 181 185 188 190 191 191 192 199 204 209 215 222 230 238 247 253
284 279 274 272 272 272 275 278 275 268 264 265 264 263 266 266 260 270 269 271 275 275 272 265 243 229 210 197 193 194 186 184 173 177 180 174 158 170 169 195 183 196 178 190 183 193 189 182 186 186 192 183 189 190 192 178 180 178 181 187 195 196 196 198 201 205 207 210 216 222 230 238 245 252
286 285 283 277 274 267 265 264 269 276 281 282 278 271 264 264 265 251 245 258 264 258 263 264 261 256 230 218 196 196 181 189 182 186 176 173 177 175 195 192 192 192 176 175 186 195 171 184 188 193 200 193 196 199 185 180 174 182 189 193 196 197 199 201 203 206 210 214 218 224 233 240 247 254
279 281 281 281 274 272 266 265 264 263 267 275 284 286 279 266 257 261 251 237 242 258 251 255 258 254 251 227 213 200 192 183 186 177 180 182 191 195 193 200 193 157 177 163 177 194 185 183 195 201 198 193 192 194 187 183 181 187 192 195 199 200 201 203 204 207 211 215 219 226 235 242 250 257
273 271 273 275 273 271 270 264 262 259 261 265 269 274 278 280 271 255 250 244 234 233 242 245 247 247 246 244 209 214 202 185 186 181 195 191 195 199 207 179 96 94 156 178 180 188 189 191 190 204 197 181 184 195 188 186 190 190 191 197 201 202 203 205 206 209 212 215 220 227 235 244 251 257
271 271 268 267 267 267 267 266 266 267 266 266 266 268 274 279 283 288 288 274 244 229 229 236 240 245 239 244 212 200 214 212 195 193 194 190 190 148 73 73 110 143 190 184 160 206 183 173 195 211 185 176 186 185 184 188 195 195 196 198 201 203 205 205 207 209 212 216 221 227 235 244 252 257
273 272 269 269 266 265 262 261 259 260 263 265 264 263 262 268 276 277 271 274 284 274 241 227 230 234 232 228 215 193 186 197 186 39 44 86 120 153 162 166 168 170 181 182 189 196 181 183 198 199 166 165 186 180 188 193 196 199 199 199 201 206 205 205 207 210 213 217 221 227 237 242 250 257
274 271 268 265 266 264 263 259 254 254 252 259 259 259 260 260 264 269 275 278 279 280 271 251 240 231 230 225 214 194 187 188 156 128 123 165 157 167 191 181 161 199 170 192 201 176 173 183 185 177 178 181 184 181 192 191 199 199 200 199 202 205 205 205 209 212 216 219 222 228 235 241 247 259
276 272 269 271 268 265 262 259 253 250 245 252 253 255 257 258 256 262 272 280 273 272 274 269 250 241 231 223 211 196 188 175 156 164 183 180 170 197 196 195 193 147 176 193 179 187 205 145 175 164 140 140 197 186 186 182 194 199 199 198 199 202 202 204 209 215 220 222 223 227 234 239 246 260
278 277 272 268 264 262 262 258 253 246 241 249 250 251 253 254 253 254 267 272 275 284 295 290 280 257 247 236 218 204 190 177 178 183 189 170 180 190 196 183 127 135 226 195 178 189 179 156 175 162 140 195 174 160 169 176 171 179 180 180 198 205 206 207 210 217 222 222 224 228 233 236 233 243
278 276 275 268 260 257 256 254 251 247 241 245 248 248 248 249 253 253 258 262 272 287 289 296 302 290 260 226 214 206 193 189 188 191 189 182 185 188 191 183 184 196 194 166 174 189 161 165 175 184 181 152 183 168 137 150 143 142 149 165 190 208 209 214 223 227 227 226 228 231 233 233 219 220
282 279 273 270 258 251 249 247 245 242 239 238 241 242 246 245 259 262 257 262 275 278 284 289 292 292 276 239 219 205 191 194 196 196 191 185 189 189 185 184 192 213 163 175 171 182 173 177 171 172 187 142 121 134 159 145 149 148 168 175 193 199 194 211 217 223 226 228 231 234 234 233 226 211
275 271 272 270 268 264 256 248 243 239 236 234 236 241 244 251 250 249 251 258 258 264 271 278 282 284 276 246 217 203 193 194 194 194 194 193 193 195 187 181 184 199 198 171 173 180 142 175 178 173 167 136 131 131 137 159 150 169 165 183 203 199 192 203 205 222 214 203 220 222 228 230 233 223
275 274 271 269 268 266 266 262 252 244 239 236 238 240 243 245 245 247 249 248 250 256 262 265 270 271 270 244 218 198 195 194 188 188 190 191 191 185 173 178 190 181 114 148 170 155 145 149 177 173 166 130 125 115 130 145 167 144 162 192 203 207 199 190 204 218 205 209 223 224 226 237 242 243
273 272 268 268 266 265 262 261 257 249 242 240 240 239 239 240 240 242 242 241 242 249 255 256 254 256 258 243 215 202 201 190 182 171 155 146 151 132 110 105 103 121 137 152 166 165 158 154 174 174 149 152 151 159 159 118 114 160 181 184 190 207 195 187 214 214 215 213 230 205 183 225 238 232
273 271 271 270 269 267 263 259 257 255 247 241 241 239 236 235 237 236 236 237 235 238 240 242 247 250 249 232 220 186 122 95 110 116 102 93 94 95 92 90 104 119 131 147 153 144 144 155 161 142 132 144 138 148 149 160 152 171 172 149 173 205 195 200 200 209 205 190 198 168 185 192 220 198
271 271 270 269 267 266 261 256 250 245 241 237 237 238 237 236 233 230 231 230 229 233 236 238 239 244 235 217 173 135 139 148 160 148 136 128 120 121 117 103 89 101 120 131 137 138 135 133 149 145 135 140 140 149 158 145 157 165 155 162 177 144 186 186 195 168 146 153 155 163 189 179 233 141
271 268 267 265 262 257 253 247 244 242 240 238 236 234 234 232 229 228 227 227 228 229 229 233 232 207 156 125 129 142 146 149 150 152 146 140 141 131 125 117 118 112 81 67 98 135 143 141 145 149 143 144 137 150 159 154 147 151 159 159 150 173 187 142 140 149 145 126 107 61 31 26 54 81
275 276 275 271 265 256 250 246 237 235 233 232 230 229 226 221 219 220 222 224 226 225 224 216 164 143 164 165 168 150 144 141 141 144 141 140 140 139 128 115 131 128 107 87 83 87 104 110 110 97 115 139 144 145 136 142 153 152 153 154 151 128 124 138 133 131 133 110 80 58 32 45 87 94
282 277 273 266 260 246 240 233 230 227 223 222 222 222 222 217 208 206 208 217 218 218 206 175 160 163 156 147 143 136 128 134 138 136 122 131 131 132 127 138 147 148 140 129 115 99 95 90 82 90 83 71 129 144 133 125 147 147 150 142 127 113 120 124 126 132 111 88 86 77 58 47 72 108
278 275 270 261 251 244 231 231 228 225 216 214 214 215 215 218 225 223 218 213 214 198 175 163 160 160 153 149 160 144 138 118 108 129 138 141 140 136 138 134 138 132 127 129 125 123 116 109 101 94 92 83 64 52 112 143 140 137 117 121 115 114 119 116 118 128 118 128 121 94 77 44 40 86
276 272 264 261 248 240 231 224 224 213 212 210 210 214 210 214 219 224 222 216 190 174 168 164 160 156 157 157 158 152 144 137 128 114 104 118 132 138 139 135 140 146 142 136 135 136 129 124 121 111 91 83 72 57 42 33 129 101 97 92 114 118 126 128 122 105 89 66 86 102 98 73 54 21
277 270 266 261 250 229 223 222 208 207 210 213 214 217 219 223 222 215 216 190 173 167 159 155 154 155 154 154 151 146 140 132 133 131 132 132 129 121 124 132 136 137 133 133 134 137 132 127 129 125 130 120 113 87 21 16 29 124 115 113 104 108 114 105 79 72 79 72 87 107 104 100 62 10
299 302 294 267 242 222 224 221 209 212 214 215 217 213 218 223 220 209 191 171 166 161 159 156 158 155 149 143 139 139 138 136 135 134 128 125 121 127 126 127 130 132 127 131 135 138 133 129 128 136 135 130 122 115 83 302 23 15 115 121 114 116 125 101 89 75 75 105 88 97 129 114 73 25
313 313 315 322 317 272 226 214 212 219 221 219 221 216 210 200 162 144 144 150 150 145 145 147 143 143 144 145 141 137 130 123 125 127 131 133 134 137 138 137 139 137 134 134 138 141 135 130 142 152 145 132 128 126 126 29 8 360 345 108 118 136 108 105 94 106 92 78 107 129 101 80 79 76
328 325 327 328 328 329 2 130 136 133 104 102 139 156 139 129 136 137 146 145 143 143 142 140 147 148 144 145 142 139 137 137 135 135 133 133 128 129 128 130 128 131 130 135 137 135 132 142 154 159 148 142 148 151 135 121 95 153 6 47 122 108 95 109 114 113 110 98 83 70 68 124 114 47
332 331 331 334 336 337 342 3 64 95 91 81 77 65 98 124 139 140 136 139 143 145 144 144 138 135 136 140 138 130 127 132 133 133 133 130 127 123 125 126 128 133 132 122 117 115 122 133 141 141 123 106 101 102 108 102 106 54 50 26 40 115 138 118 119 125 105 119 111 84 71 36 71 334
339 341 344 337 335 345 343 359 28 60 81 84 84 76 65 68 88 105 129 139 142 136 134 137 140 142 143 144 143 139 134 129 128 127 124 122 125 129 130 128 118 115 107 97 100 95 100 108 112 107 103 110 115 111 95 91 91 89 65 30 16 43 94 125 139 136 142 148 112 119 121 121 112 42
343 345 342 348 347 348 352 358 15 58 75 83 92 91 83 73 69 85 92 87 97 120 131 132 132 131 134 137 135 132 132 134 133 128 128 128 125 118 112 105 109 103 108 108 105 98 79 88 108 110 120 124 126 112 116 123 129 123 126 77 334 351 29 51 65 102 140 133 106 96 86 17 28 32
347 349 350 351 356 1 7 6 9 29 56 72 85 94 96 93 87 84 91 98 101 102 112 118 122 123 124 125 124 126 126 128 129 126 123 121 121 121 118 113 106 100 97 96 98 103 100 111 115 116 114 107 105 118 126 131 129 133 144 151 184 289 355 44 61 63 64 89 118 133 149 144 120 43
349 350 356 358 5 10 12 14 13 18 43 58 71 79 88 98 94 86 87 98 108 113 115 118 121 123 124 123 119 115 115 119 122 122 120 118 115 114 112 109 108 111 114 115 111 95 96 90 90 109 106 109 120 118 128 128 135 146 156 159 152 137 170 90 46 33 17 4 23 67 79 117 122 110
353 360 4 8 10 16 19 19 23 23 33 50 63 73 78 83 88 89 86 88 98 105 112 118 119 120 122 122 121 118 114 110 111 109 110 106 104 107 108 114 117 121 124 128 115 105 99 97 87 88 98 106 110 120 127 133 136 140 133 118 130 147 170 151 120 113 111 12 324 9 306 11 4 0